User: anonymous   Login
Location: Newark
(52.1031°N, 9.3600°E)
Time: 08:57:16
(UTC+00:00)
Language:

MOZHAYETS 4 - Orbit

View from above orbital plane
View from above orbital plane
View from above satellite
View from above satellite

Ground track
Ground track

The orbit data is extracted from the following two-line orbital elements,

1 27939U 03042A   19341.06652192 -.00000001  00000-0  84430-5 0  9994
2 27939  98.0641 113.8001 0011902 242.1546 117.8440 14.66821631865665
Epoch (UTC): 07 December 2019 01:35:47
Eccentricity: 0.0011902
inclination: 98.0641°
perigee height: 663 km
apogee height: 679 km
right ascension of ascending node: 113.8001°
argument of perigee: 242.1546°
revolutions per day: 14.66821631
mean anomaly at epoch: 117.8440°
orbit number at epoch: 86566

The dashed part of the orbit path shows where the satellite is in the earth's shadow,  

DLR